Simultaneous Nadir Overpasses (SNOs) Predictions

Prediction of SNOs between GOES-15 and NOAA-20 Satellite Orbit:

Table of predicted SNOs for the next 14.0 days since TLE Epoch: 9/13/2019
Index Date Time (GOES-15) GOES-15 Lat,Lon NOAA-20 Lat,Lon Distance(km) Time Diff (sec)
1 09/14/2019 21:58:00 -0.35,-128.09 -0.29,-127.96 15.58 80
2 09/17/2019 10:01:03 0.34,-128.05 0.46,-128.70 73.54 80
3 09/18/2019 09:39:39 0.35,-128.02 -0.54,-124.17 439.44 80
4 09/19/2019 22:01:35 -0.34,-127.95 -0.69,-129.47 174.06 80
5 09/20/2019 21:45:31 -0.34,-127.91 0.31,-124.94 338.81 80
6 09/22/2019 10:05:41 0.32,-127.89 0.86,-130.21 264.65 18
7 09/23/2019 09:45:55 0.33,-127.85 -0.14,-125.68 247.31 80
8 09/24/2019 22:07:52 -0.31,-127.76 -1.02,-130.99 368.59 80
9 09/25/2019 21:51:47 -0.31,-127.72 -0.02,-126.46 143.48 80
10 09/27/2019 10:10:56 0.30,-127.70 1.20,-131.73 460.14 80




NCC Satellite Simultaneous Nadir Overpasses (SNOs) Prediction Service
